Location: Archemont
(49.1579°N, 1.7598°E)
Time: 13:11:02
(UTC+00:00)

Transit 2A - Pass Details

Date: 14 April 2024
Orbit: 593 x 958 km, 66.7° (Epoch: 30 May)

Event Time Altitude Azimuth Distance (km) Brightness Sun altitude
Rises 16:59:23 0° 318° (NW) 3,231 9.8 16.1°
Reaches altitude 10° 17:01:50 10° 311° (NW) 2,359 9.4 15.7°
Maximum altitude 17:06:49 38° 245° (WSW) 1,276 8.4 14.9°
Drops below altitude 10° 17:12:13 10° 179° (S) 2,560 8.8 14.0°
Sets 17:14:58 0° 172° (S) 3,540 9.4 13.6°
